Weather in Mito

Japan     36°22′17″N   140°28′15″E
temp.,
°C
wind,
m/s
gust,
m/s
humid.,
%
clouds,
%
prec.,
mm/h
press.,
hPa
HPBL,
m
21 june, mon
mon2100:00+20sw2688100 0.4 1003203
03:00+19ene229374 1.6 1003118
06:00+19sse138966 0.0 1005199
09:00+23sse346885 0.0 1005965
12:00+23ese546558 0.0 1006760
15:00+24ese6668100 0.0 1005613
18:00+23ssw47725 0.2 1006746
21:00+20sw377935 0.2 1007604
22 june, tue
tue2200:00+19sw25810 0.0 1007224
03:00+18wsw1285100 0.0 100746
06:00+20nnw1180100 0.0 1008155
09:00+23ese336693 0.0 1008814
12:00+23e4468100 0.0 1008897
15:00+23e3472100 0.1 1008703
18:00+21e3478100 0.0 1008519
21:00+20ene2588100 0.1 1010330
23 june, wed
wed2300:00+19ne3592100 0.1 1010296
03:00+19nne3792100 0.1 1009392
06:00+20ne478498 0.0 1010499
09:00+21ne5776100 0.0 1011791
12:00+23ene5668100 0.0 1011948
15:00+22ene566926 0.0 1010968
18:00+21ene5778100 0.1 1012499
21:00+20ne468280 0.2 1012371
24 june, thu
thu2400:00+19nne478640 0.2 1012377
03:00+18ne36914 0.2 1012284
06:00+19nne358645 0.0 1012429
09:00+22ene4474100 0.1 1013798
12:00+23ene546743 0.1 1012961
15:00+22e55700 0.1 1011780
18:00+21ene57811 0.0 1011593
21:00+20ne47894 0.0 1012477
25 june, fri
fri2500:00+19nne4791100 0.0 1011429
03:00+18nne4889100 0.0 1010456
06:00+19nne4986100 0.0 1010557
09:00+22ne6869100 0.0 1011843
12:00+24ne6762100 0.0 1010901
15:00+22ene5766100 0.0 1010689
18:00+20ene4779100 0.0 1011533
21:00+20ne3684100 0.0 1012394